Wind_Speed
27 28 28 28 29 29 30 30 30 30 29 29 28 29 29 29 30 30 31 31 31 33 34 34 35 35 35 34 35 35 35 35 35 36 37 37 37 36 37 37 37 37 37
26 26 26 26 27 28 28 28 28 28 28 27 27 27 28 28 28 29 29 31 31 31 32 32 32 33 33 32 34 34 34 35 36 37 37 36 36 36 36 36 36 37 37
25 25 25 25 25 26 26 26 26 26 26 26 26 26 26 26 27 28 29 29 30 30 30 30 31 31 31 32 32 33 33 34 35 35 35 35 35 34 35 36 37 36 37
24 24 23 23 23 22 22 22 23 24 25 25 26 26 25 26 27 27 27 28 29 29 29 29 29 30 30 31 30 31 32 34 35 35 35 35 35 35 35 36 36 36 36
23 22 22 21 21 20 20 20 21 21 23 23 23 23 24 24 25 25 26 26 26 27 28 28 28 29 29 29 29 30 31 31 32 32 33 34 34 34 34 34 34 34 34
21 20 20 19 19 18 18 19 19 19 19 20 20 21 20 21 22 22 23 24 24 25 26 27 28 28 28 28 29 29 28 29 30 30 31 31 32 32 32 32 32 32 32
18 18 17 16 15 15 15 15 16 17 17 17 17 18 18 19 19 20 21 21 21 23 24 24 25 25 25 25 26 27 28 29 29 29 29 29 29 30 30 30 30 30 30
16 16 15 14 13 13 12 12 12 13 13 14 14 15 16 16 16 17 17 18 18 19 20 20 21 21 22 23 24 25 25 26 26 26 27 27 27 27 27 27 27 27 27
14 13 12 12 11 10 10 10 9 10 10 11 11 12 13 13 12 13 14 15 15 16 16 17 18 19 20 20 20 21 22 22 23 23 24 24 24 24 24 24 23 23 23
11 11 10 9 9 8 8 8 8 7 7 7 7 8 9 9 10 10 11 12 13 13 14 14 14 15 15 16 17 18 18 19 19 20 20 20 21 21 21 20 20 19 19
9 8 8 7 7 6 6 5 5 5 5 5 6 6 6 6 6 6 7 8 9 10 11 11 12 12 13 14 15 15 15 16 16 16 17 17 17 18 18 18 18 18 18
7 6 6 5 5 4 4 3 3 3 3 4 3 3 2 2 3 4 4 5 6 6 7 8 8 9 10 11 12 12 12 12 13 13 14 14 14 15 15 16 16 16 16
5 5 4 2 1 1 1 1 1 1 1 1 1 1 1 1 1 1 2 2 3 3 4 4 5 6 7 8 8 8 9 9 9 10 10 11 11 12 12 13 13 13 13
4 4 3 3 3 3 4 4 3 3 4 4 4 3 3 3 3 3 3 3 3 3 4 4 5 5 6 6 6 6 6 7 7 7 7 8 8 9 9 9 9 9 9
5 6 6 6 7 7 7 7 7 6 6 6 6 6 5 5 6 7 7 6 6 5 5 5 5 5 5 5 5 5 6 6 6 5 6 6 6 6 7 7 7 7 8
8 9 9 9 9 9 9 9 8 8 8 8 8 8 8 8 8 8 8 7 7 7 7 7 6 6 6 6 5 5 5 5 5 5 5 5 5 5 6 6 6 6 6
11 11 11 11 11 11 11 11 11 11 11 10 10 10 10 9 9 8 8 9 9 9 9 8 8 8 7 7 7 6 6 5 5 5 5 5 5 5 5 5 5 5 5
12 12 12 12 12 12 13 13 12 12 12 11 11 10 10 10 9 10 10 10 10 9 9 9 9 9 8 8 8 8 7 6 6 5 5 5 5 5 4 4 4 5 5
12 13 13 13 13 14 14 13 13 13 13 12 12 11 11 11 11 11 11 11 11 11 11 10 10 10 10 9 9 9 8 7 7 6 6 6 6 5 5 5 5 5 5
13 14 14 14 15 15 15 14 14 14 14 13 13 13 13 13 12 12 12 12 12 12 12 12 12 12 11 11 10 10 9 9 8 8 7 7 7 6 6 6 6 6 6
15 15 15 15 16 16 16 16 16 16 15 15 15 14 14 14 14 13 13 13 13 13 13 13 13 13 12 12 12 11 10 10 9 9 9 8 8 7 7 7 7 7 7
15 15 16 16 16 16 16 16 16 16 16 15 15 15 14 14 14 14 14 14 14 14 13 13 13 12 12 12 12 11 11 10 10 10 10 9 9 9 9 8 8 9 9
15 15 15 15 15 15 16 16 16 16 15 15 15 15 14 14 14 14 14 14 14 14 13 13 13 13 12 12 12 11 11 11 11 11 10 10 10 10 10 11 11 11 12
14 15 15 15 15 14 14 15 15 15 15 14 14 14 14 14 14 14 14 13 13 13 13 13 13 13 13 13 13 12 12 12 12 12 12 12 12 12 12 12 13 14 15
14 14 14 14 14 14 14 14 14 14 14 14 14 14 14 14 14 13 13 13 13 13 13 13 13 13 13 13 14 14 14 13 13 13 14 14 14 14 15 15 16 16 17
13 13 13 13 13 13 13 13 13 13 13 13 13 13 13 13 13 13 13 13 13 13 13 13 14 14 14 14 14 14 14 15 15 15 16 16 16 17 17 18 18 19 19
Wind_Direction
280 278 276 275 274 272 270 269 268 267 266 266 262 262 260 258 255 253 252 252 253 253 251 251 252 253 253 254 252 251 251 254 258 259 261 262 264 266 268 271 273 274 274
285 283 281 278 275 273 271 269 267 266 265 264 263 262 259 258 257 255 253 253 254 254 252 252 253 253 252 252 251 250 252 254 257 260 260 261 264 268 271 273 275 275 277
287 285 283 280 276 274 272 271 268 266 263 261 262 261 258 257 257 256 254 255 255 254 253 253 254 255 254 252 252 253 254 255 258 259 261 264 268 270 272 275 277 279 282
290 287 285 281 279 277 273 270 268 266 264 262 261 259 257 257 258 257 258 257 256 255 254 255 255 255 255 253 252 254 254 255 258 260 263 266 269 271 273 276 278 280 282
293 291 287 281 278 276 273 271 270 267 263 262 261 261 260 259 260 260 259 258 257 255 254 254 254 253 256 255 255 255 255 258 260 262 265 267 270 273 274 277 280 281 282
294 291 289 284 278 276 275 273 270 266 264 263 262 262 261 262 261 260 258 257 255 253 253 254 254 256 258 258 258 257 259 263 265 266 268 270 272 274 276 278 280 281 283
295 294 291 290 285 281 278 275 270 266 266 264 264 261 260 259 258 259 260 258 257 255 256 257 257 258 258 259 261 263 264 266 267 268 270 273 274 275 276 277 279 281 282
298 295 294 294 289 284 281 278 275 271 269 268 264 258 256 257 256 257 258 259 261 261 259 258 260 264 263 262 263 265 267 268 270 272 272 273 274 276 278 279 279 280 281
301 298 293 293 289 287 284 280 276 271 269 265 257 254 256 257 257 255 256 258 260 260 260 262 263 265 264 263 265 267 267 268 270 272 273 274 275 277 278 279 280 280 281
303 301 298 297 295 289 282 280 275 274 272 263 258 255 259 260 260 259 257 257 259 260 263 265 266 267 267 268 271 273 273 274 275 277 277 278 279 279 279 279 280 280 281
308 305 301 299 296 286 273 270 271 268 263 261 258 256 257 260 264 268 265 263 265 266 268 270 272 272 274 275 276 277 278 278 278 280 282 281 280 281 281 280 280 279 280
323 321 313 303 294 284 271 273 271 260 262 261 264 264 262 275 285 286 274 271 271 274 276 275 275 279 282 281 280 280 282 284 284 283 283 284 285 285 285 283 280 278 276
337 342 343 344 328 330 5 48 88 124 130 118 97 70 64 38 19 354 332 309 318 315 313 309 305 304 304 300 295 292 294 294 292 290 290 290 290 290 289 286 282 280 280
1 11 30 52 72 83 85 90 91 95 104 97 88 90 88 79 69 59 53 53 39 21 2 346 332 325 323 319 312 306 305 305 302 301 303 303 302 300 297 290 285 283 286
48 61 69 78 84 85 86 87 88 91 95 95 91 90 86 80 74 68 63 55 43 32 19 8 2 358 351 343 332 325 320 318 316 316 317 316 314 310 305 302 297 295 292
70 73 77 80 82 84 87 89 90 92 92 94 94 90 83 76 69 63 57 52 47 44 41 36 30 22 15 11 5 355 348 344 339 332 332 332 327 320 316 313 309 306 300
79 79 79 79 82 85 89 92 92 92 91 90 89 87 83 78 71 64 59 57 56 54 50 45 40 35 33 30 25 22 19 15 10 2 355 350 345 337 330 324 320 317 312
84 83 82 82 83 86 87 87 89 89 89 89 87 84 79 75 71 68 65 62 59 55 50 47 44 43 39 37 37 37 34 30 25 19 13 8 3 358 353 346 338 330 323
87 87 86 85 85 86 86 87 87 88 89 88 86 83 79 76 73 69 66 62 60 58 55 52 50 49 49 50 49 46 42 38 33 29 23 18 14 9 4 357 349 342 335
91 90 88 87 87 88 88 88 88 88 87 86 85 83 80 78 74 71 67 64 62 60 58 57 56 56 54 53 51 48 44 40 35 30 26 21 16 10 3 357 352 348 342
91 90 89 88 88 88 88 89 88 86 85 85 83 81 79 76 74 72 69 67 65 62 60 59 58 56 54 52 50 47 43 40 36 31 26 20 14 8 3 357 352 346 339
93 91 90 89 89 88 88 88 87 86 84 83 82 81 80 78 75 73 70 67 65 63 61 58 55 52 50 47 44 41 37 33 29 25 21 17 12 5 358 351 344 338 332
95 94 93 91 90 90 88 87 86 85 83 81 80 79 78 76 73 71 68 65 62 59 57 54 50 47 44 40 36 32 28 24 20 16 12 7 2 357 352 346 340 334 329
97 96 95 93 91 89 88 87 86 85 83 81 79 77 76 74 71 68 65 62 59 55 52 48 44 41 38 34 30 27 23 19 15 11 7 2 358 353 347 341 336 331 327
100 98 96 94 92 90 89 88 86 83 81 78 77 75 73 70 67 64 61 57 54 50 45 41 37 35 32 28 25 22 19 15 11 8 4 359 354 349 344 338 334 330 326
102 100 98 95 92 90 88 87 85 82 78 75 73 70 68 65 62 59 55 51 47 43 39 36 32 29 25 22 18 15 11 7 3 360 357 353 350 346 342 338 334 331 328
Height
5764 5763 5762 5761 5761 5760 5760 5760 5760 5760 5760 5760 5760 5761 5761 5762 5763 5764 5765 5767 5768 5769 5771 5772 5774 5775 5776 5778 5779 5780 5781 5782 5782 5782 5782 5782 5782 5782 5782 5781 5780 5779 5778
5757 5756 5754 5753 5753 5752 5752 5752 5752 5752 5752 5752 5753 5753 5754 5755 5756 5757 5758 5759 5760 5762 5763 5764 5766 5767 5768 5770 5771 5772 5773 5773 5774 5774 5774 5774 5774 5774 5773 5772 5771 5770 5770
5751 5749 5748 5746 5746 5745 5744 5744 5744 5744 5744 5745 5745 5746 5747 5748 5748 5749 5750 5751 5753 5754 5755 5757 5758 5759 5760 5761 5762 5763 5764 5765 5766 5766 5766 5766 5765 5765 5765 5764 5763 5762 5761
5744 5743 5741 5740 5739 5738 5737 5737 5737 5737 5737 5738 5738 5739 5739 5740 5741 5742 5743 5744 5745 5746 5748 5749 5750 5752 5753 5753 5754 5755 5756 5757 5758 5758 5758 5758 5757 5757 5756 5756 5755 5754 5752
5738 5736 5735 5733 5732 5732 5731 5731 5730 5730 5730 5731 5731 5732 5732 5733 5734 5735 5736 5737 5738 5739 5741 5742 5743 5744 5745 5746 5747 5748 5748 5749 5749 5749 5750 5750 5749 5749 5748 5747 5746 5745 5743
5732 5730 5729 5727 5726 5726 5725 5725 5724 5724 5724 5724 5725 5725 5726 5727 5727 5728 5729 5731 5731 5732 5733 5734 5735 5736 5737 5738 5739 5740 5741 5741 5742 5742 5742 5742 5741 5741 5740 5739 5738 5737 5736
5727 5725 5724 5722 5721 5720 5720 5719 5719 5719 5719 5719 5719 5720 5721 5721 5722 5723 5724 5725 5725 5726 5727 5728 5729 5729 5730 5731 5732 5732 5733 5734 5734 5735 5734 5734 5734 5733 5732 5731 5730 5729 5727
5723 5721 5719 5718 5717 5716 5715 5715 5715 5715 5715 5715 5715 5716 5716 5717 5717 5718 5719 5719 5720 5720 5721 5722 5723 5723 5724 5724 5725 5726 5726 5726 5727 5727 5727 5726 5726 5725 5725 5724 5722 5721 5720
5719 5717 5715 5714 5713 5712 5712 5712 5711 5711 5711 5711 5712 5712 5712 5713 5713 5714 5714 5715 5715 5716 5716 5717 5718 5718 5718 5718 5719 5719 5720 5720 5720 5720 5719 5719 5718 5718 5717 5717 5716 5715 5713
5716 5714 5712 5711 5710 5709 5709 5709 5709 5709 5708 5709 5709 5709 5709 5710 5710 5710 5711 5711 5712 5712 5712 5713 5713 5713 5713 5713 5714 5714 5714 5714 5714 5713 5713 5713 5712 5712 5711 5710 5709 5709 5708
5713 5711 5710 5709 5708 5707 5707 5707 5706 5706 5706 5706 5707 5707 5707 5707 5708 5708 5708 5708 5709 5709 5709 5709 5709 5709 5709 5709 5710 5710 5709 5709 5709 5708 5708 5707 5707 5706 5705 5705 5704 5703 5702
5711 5709 5708 5707 5706 5706 5705 5705 5705 5705 5705 5705 5705 5705 5706 5706 5706 5706 5706 5707 5707 5707 5707 5706 5706 5706 5706 5706 5706 5706 5705 5705 5704 5704 5704 5703 5702 5701 5700 5700 5699 5698 5697
5710 5709 5707 5706 5705 5705 5705 5704 5704 5705 5705 5705 5705 5705 5705 5705 5705 5705 5705 5705 5705 5705 5705 5705 5704 5704 5704 5704 5703 5703 5702 5702 5701 5701 5700 5699 5698 5697 5696 5695 5694 5694 5693
5710 5709 5707 5706 5706 5705 5705 5705 5705 5705 5705 5705 5706 5706 5706 5706 5706 5706 5706 5705 5705 5705 5704 5704 5703 5703 5702 5702 5701 5701 5700 5700 5699 5698 5697 5696 5695 5694 5693 5692 5691 5691 5690
5711 5709 5708 5708 5707 5706 5706 5706 5706 5706 5706 5707 5707 5707 5707 5707 5707 5707 5706 5706 5706 5705 5704 5704 5703 5702 5701 5700 5700 5699 5698 5698 5697 5696 5695 5694 5693 5692 5691 5690 5689 5689 5688
5712 5711 5710 5709 5709 5708 5708 5708 5708 5708 5708 5709 5709 5709 5709 5709 5709 5708 5708 5707 5707 5706 5705 5704 5703 5702 5701 5700 5699 5698 5697 5696 5696 5695 5694 5693 5692 5691 5690 5689 5688 5687 5687
5715 5714 5713 5712 5712 5711 5711 5711 5711 5711 5711 5711 5711 5711 5711 5711 5711 5710 5710 5709 5708 5707 5706 5705 5704 5703 5702 5701 5699 5698 5697 5696 5695 5694 5694 5693 5691 5690 5689 5688 5688 5687 5686
5718 5717 5716 5715 5715 5714 5714 5714 5713 5714 5714 5714 5714 5714 5714 5713 5713 5712 5712 5711 5710 5709 5708 5706 5705 5704 5703 5701 5700 5699 5698 5697 5696 5695 5694 5693 5692 5691 5689 5688 5687 5686 5685
5721 5720 5720 5719 5718 5718 5717 5717 5717 5717 5717 5717 5716 5716 5716 5716 5715 5715 5714 5713 5712 5711 5710 5708 5707 5706 5704 5703 5702 5701 5699 5698 5697 5696 5695 5694 5692 5691 5690 5689 5687 5686 5685
5725 5724 5723 5723 5722 5722 5721 5721 5721 5721 5720 5720 5720 5719 5719 5719 5718 5717 5717 5716 5715 5713 5712 5711 5709 5708 5707 5705 5704 5703 5701 5700 5699 5698 5696 5695 5693 5692 5690 5689 5688 5686 5685
5728 5728 5728 5727 5727 5726 5726 5725 5725 5725 5724 5724 5723 5723 5722 5722 5721 5720 5719 5718 5717 5716 5715 5714 5712 5711 5710 5708 5707 5705 5704 5702 5701 5699 5698 5696 5694 5693 5691 5689 5688 5686 5685
5733 5732 5732 5732 5731 5731 5731 5730 5730 5729 5729 5728 5727 5727 5726 5725 5725 5724 5723 5722 5721 5719 5718 5717 5715 5714 5712 5711 5709 5708 5706 5704 5703 5701 5699 5697 5695 5693 5692 5690 5688 5686 5684
5737 5737 5736 5736 5736 5736 5735 5735 5734 5733 5733 5732 5732 5731 5730 5729 5728 5727 5726 5725 5724 5722 5721 5720 5718 5717 5715 5713 5711 5710 5708 5706 5704 5702 5700 5698 5696 5694 5692 5689 5687 5685 5683
5741 5741 5741 5741 5740 5740 5739 5739 5738 5738 5737 5736 5736 5735 5734 5733 5732 5731 5729 5728 5727 5725 5724 5722 5721 5719 5717 5715 5713 5711 5709 5707 5705 5703 5700 5698 5696 5693 5691 5689 5686 5683 5681
5745 5745 5745 5744 5744 5744 5743 5743 5742 5742 5741 5740 5739 5738 5737 5736 5735 5734 5733 5731 5730 5728 5726 5725 5723 5721 5719 5717 5715 5713 5710 5708 5706 5703 5701 5698 5695 5693 5690 5687 5684 5681 5678
5748 5748 5748 5748 5748 5747 5747 5746 5746 5745 5744 5743 5743 5742 5741 5740 5738 5737 5736 5734 5732 5731 5729 5727 5725 5723 5721 5718 5716 5714 5711 5709 5706 5703 5700 5697 5694 5691 5688 5685 5682 5678 5675